Location: Aalsum
(53.3404°N, 6.0062°E)
Time: 09:54:17
(UTC+00:00)

Meteor 1-11 - Pass Details

Date: 28 January 2023
Orbit: 839 x 888 km, 81.2° (Epoch: 19 March)

Event Time Altitude Azimuth Distance (km) Brightness Sun altitude
Rises 18:36:42 0° 181° (S) 3,483 7.4 -21.5°
Reaches altitude 10° 18:39:09 10° 179° (S) 2,549 6.7 -21.9°
Maximum altitude 18:44:54 66° 98° (E) 967 4.2 -22.7°
Drops below altitude 10° 18:50:40 10° 18° (NNE) 2,556 6.5 -23.6°
Sets 18:53:07 0° 16° (NNE) 3,494 7.3 -24.0°
